User: anonymous   Login
Location: Unspecified
(0.0000°N, 0.0000°E)
Time: 18:56:55
(UTC+00:00)
Language:

M-CUBED/EXP-1 PRIME - Orbit

View from above orbital plane
View from above orbital plane
View from above satellite
View from above satellite

Ground track
Ground track

The orbit data is extracted from the following two-line orbital elements,

1 37855U 11061F   19340.92065603 +.00001085 +00000-0 +61834-4 0  9995
2 37855 101.7248 324.5122 0172248 289.1481 069.1155 15.05857123442070
Epoch (UTC): 06 December 2019 22:05:44
Eccentricity: 0.0172248
inclination: 101.7248°
perigee height: 429 km
apogee height: 668 km
right ascension of ascending node: 324.5122°
argument of perigee: 289.1481°
revolutions per day: 15.05857123
mean anomaly at epoch: 69.1155°
orbit number at epoch: 44207

The dashed part of the orbit path shows where the satellite is in the earth's shadow,  

DLR